VKG118 EKCH-LEPA

Flight info

Callsign VKG118
Flight time 2h 52m
Altitude 34000
Route NEXEN T503 GIMRU DCT MICOS DCT WRB DCT XAROL DCT BOMBI DCT GIGET DCT ABUKA DCT KRH DCT NATOR DCT LUTIX DCT BENOT DCT NEMOS DCT GEVEA DCT INCUS DCT BALSI DCT RETNO DCT TUPOX DCT MTG DCT DIVKO DCT VATIR N852 VERSO L129 LUNIK
Aircraft A321/M-SDE3FGHIRWY/LB1

Departure

Time 2026-05-06 15:57
Airport Copenhagen Kastrup Airport (EKCH)

Arrival

Time 2026-05-06 18:49
Airport Palma de Mallorca Airport (LEPA)
Time Latitude Longitude Altitude Speed Heading
2026-05-06 15:22 55.62704 12.65393 29 ft 0 kts 27°
2026-05-06 15:46 55.62692 12.65382 24 ft 4 kts 27°
2026-05-06 15:46 55.62673 12.65366 27 ft 4 kts 28°
2026-05-06 15:47 55.62650 12.65341 27 ft 4 kts 33°
2026-05-06 15:47 55.62627 12.65320 25 ft 4 kts
2026-05-06 15:47 55.62605 12.65320 27 ft 4 kts 359°
2026-05-06 15:47 55.62600 12.65320 25 ft 0 kts 359°
2026-05-06 15:50 55.62624 12.65313 25 ft 6 kts 345°
2026-05-06 15:50 55.62650 12.65275 24 ft 4 kts 297°
2026-05-06 15:51 55.62649 12.65229 24 ft 4 kts 254°
2026-05-06 15:51 55.62614 12.65187 24 ft 11 kts 194°
2026-05-06 15:51 55.62493 12.65186 25 ft 21 kts 174°
2026-05-06 15:51 55.62354 12.65203 24 ft 19 kts 179°
2026-05-06 15:52 55.62223 12.65183 24 ft 18 kts 197°
2026-05-06 15:52 55.62120 12.65076 25 ft 17 kts 213°
2026-05-06 15:52 55.62002 12.64940 24 ft 25 kts 213°
2026-05-06 15:52 55.61838 12.64752 24 ft 29 kts 213°
2026-05-06 15:53 55.61674 12.64563 24 ft 27 kts 213°
2026-05-06 15:53 55.61517 12.64383 24 ft 26 kts 213°
2026-05-06 15:53 55.61369 12.64212 24 ft 25 kts 213°
2026-05-06 15:53 55.61208 12.64027 24 ft 31 kts 213°
2026-05-06 15:54 55.61047 12.63842 24 ft 26 kts 213°
2026-05-06 15:54 55.60898 12.63672 25 ft 25 kts 212°
2026-05-06 15:54 55.60757 12.63510 24 ft 24 kts 213°
2026-05-06 15:54 55.60627 12.63345 25 ft 22 kts 219°
2026-05-06 15:55 55.60529 12.63196 24 ft 12 kts 221°
2026-05-06 15:55 55.60465 12.63117 24 ft 11 kts 196°
2026-05-06 15:55 55.60403 12.63164 24 ft 11 kts 133°
2026-05-06 15:55 55.60346 12.63279 29 ft 8 kts 130°
2026-05-06 15:56 55.60340 12.63338 29 ft 4 kts 62°
2026-05-06 15:56 55.60378 12.63406 28 ft 20 kts 41°
2026-05-06 15:56 55.60673 12.63862 29 ft 90 kts 41°
2026-05-06 15:56 55.61294 12.64824 28 ft 144 kts 41°
2026-05-06 15:57 55.62154 12.66135 139 ft 173 kts 44°
2026-05-06 15:57 55.63051 12.67499 787 ft 170 kts 45°
2026-05-06 15:57 55.63936 12.68867 1513 ft 168 kts 47°
2026-05-06 15:57 55.64829 12.70251 1913 ft 179 kts 46°
2026-05-06 15:58 55.65831 12.71819 2004 ft 203 kts 44°
2026-05-06 15:58 55.66940 12.73512 2186 ft 223 kts 43°
2026-05-06 15:58 55.68198 12.75395 2359 ft 248 kts 42°
2026-05-06 15:58 55.69546 12.77398 3029 ft 254 kts 42°
2026-05-06 15:59 55.70685 12.79763 3741 ft 253 kts 68°
2026-05-06 15:59 55.70990 12.82804 4455 ft 255 kts 96°
2026-05-06 15:59 55.70344 12.85721 5171 ft 260 kts 126°
2026-05-06 15:59 55.68913 12.87662 5855 ft 269 kts 154°
2026-05-06 16:00 55.67132 12.88837 6548 ft 274 kts 157°
2026-05-06 16:00 55.65341 12.89966 7208 ft 278 kts 158°
2026-05-06 16:00 55.63492 12.91065 7863 ft 283 kts 165°
2026-05-06 16:00 55.61522 12.91355 8516 ft 287 kts 185°
2026-05-06 16:01 55.59579 12.90526 9229 ft 288 kts 204°
2026-05-06 16:01 55.57884 12.88668 9934 ft 288 kts 223°
2026-05-06 16:01 55.56477 12.86147 10572 ft 289 kts 227°
2026-05-06 16:01 55.55025 12.83484 10749 ft 310 kts 227°
2026-05-06 16:02 55.53485 12.80668 10875 ft 329 kts 227°
2026-05-06 16:02 55.51847 12.77679 11156 ft 343 kts 227°
2026-05-06 16:02 55.50216 12.74567 11694 ft 347 kts 230°
2026-05-06 16:02 55.48639 12.71326 12294 ft 350 kts 231°
2026-05-06 16:03 55.47082 12.68007 12959 ft 351 kts 232°
2026-05-06 16:03 55.45538 12.64676 13616 ft 352 kts 232°
2026-05-06 16:03 55.43982 12.61328 14146 ft 356 kts 232°
2026-05-06 16:03 55.42395 12.57947 14654 ft 359 kts 231°
2026-05-06 16:04 55.40786 12.54560 15188 ft 361 kts 231°
2026-05-06 16:04 55.39162 12.51175 15757 ft 363 kts 231°
2026-05-06 16:04 55.37521 12.47771 16248 ft 366 kts 231°
2026-05-06 16:04 55.35868 12.44343 16728 ft 369 kts 231°
2026-05-06 16:05 55.34202 12.40892 17250 ft 372 kts 230°
2026-05-06 16:05 55.32527 12.37421 17780 ft 373 kts 230°
2026-05-06 16:05 55.30841 12.33929 18260 ft 376 kts 230°
2026-05-06 16:05 55.29143 12.30416 18656 ft 379 kts 230°
2026-05-06 16:06 55.27430 12.26884 18910 ft 380 kts 230°
2026-05-06 16:06 55.25723 12.23369 18962 ft 379 kts 230°
2026-05-06 16:06 55.24005 12.19836 19274 ft 382 kts 230°
2026-05-06 16:06 55.22278 12.16289 19720 ft 383 kts 230°
2026-05-06 16:07 55.20499 12.12795 20155 ft 385 kts 225°
2026-05-06 16:07 55.18419 12.09816 20579 ft 388 kts 217°
2026-05-06 16:07 55.16235 12.07031 21012 ft 389 kts 217°
2026-05-06 16:07 55.14046 12.04236 21451 ft 391 kts 218°
2026-05-06 16:08 55.11876 12.01461 21850 ft 392 kts 218°
2026-05-06 16:08 55.09668 11.98638 22252 ft 394 kts 218°
2026-05-06 16:08 55.07423 11.95776 22659 ft 396 kts 218°
2026-05-06 16:08 55.05215 11.92969 23056 ft 398 kts 218°
2026-05-06 16:09 55.02941 11.90081 23452 ft 400 kts 218°
2026-05-06 16:09 55.00714 11.87257 23786 ft 402 kts 218°
2026-05-06 16:09 54.98434 11.84371 24101 ft 404 kts 217°
2026-05-06 16:09 54.96152 11.81488 24424 ft 406 kts 217°
2026-05-06 16:10 54.93851 11.78581 24728 ft 407 kts 217°
2026-05-06 16:10 54.91573 11.75708 25011 ft 410 kts 217°
2026-05-06 16:10 54.89251 11.72779 25303 ft 412 kts 217°
2026-05-06 16:10 54.86926 11.69852 25605 ft 414 kts 217°
2026-05-06 16:11 54.84586 11.66912 25900 ft 415 kts 216°
2026-05-06 16:11 54.82230 11.63959 26216 ft 417 kts 216°
2026-05-06 16:11 54.79897 11.61040 26506 ft 419 kts 216°
2026-05-06 16:11 54.77529 11.58086 26804 ft 420 kts 216°
2026-05-06 16:12 54.75141 11.55109 27100 ft 422 kts 216°
2026-05-06 16:12 54.72689 11.52300 27401 ft 423 kts 207°
2026-05-06 16:12 54.70009 11.50105 27675 ft 425 kts 205°
2026-05-06 16:12 54.67345 11.47978 27926 ft 427 kts 205°
2026-05-06 16:13 54.64642 11.45831 28183 ft 429 kts 205°
2026-05-06 16:13 54.61920 11.43680 28440 ft 430 kts 204°
2026-05-06 16:13 54.59183 11.41529 28710 ft 432 kts 204°
2026-05-06 16:13 54.56441 11.39376 28968 ft 433 kts 204°
2026-05-06 16:14 54.53692 11.37208 29221 ft 435 kts 204°
2026-05-06 16:14 54.50937 11.35005 29493 ft 436 kts 205°
2026-05-06 16:14 54.48230 11.32813 29851 ft 435 kts 205°
2026-05-06 16:14 54.45484 11.30579 30191 ft 434 kts 204°
2026-05-06 16:15 54.42775 11.28375 30505 ft 433 kts 205°
2026-05-06 16:15 54.40042 11.26158 30831 ft 432 kts 205°
2026-05-06 16:15 54.37314 11.23955 31152 ft 431 kts 205°
2026-05-06 16:15 54.34602 11.21773 31462 ft 430 kts 205°
2026-05-06 16:16 54.31889 11.19597 31774 ft 430 kts 205°
2026-05-06 16:16 54.29185 11.17433 32094 ft 429 kts 205°
2026-05-06 16:16 54.26490 11.15276 32408 ft 428 kts 205°
2026-05-06 16:16 54.24117 11.13385 32678 ft 427 kts 205°
2026-05-06 16:17 54.21417 11.11238 32950 ft 427 kts 205°
2026-05-06 16:17 54.18713 11.09101 33218 ft 427 kts 205°
2026-05-06 16:17 54.16050 11.07002 33500 ft 426 kts 205°
2026-05-06 16:17 54.13357 11.04881 33786 ft 426 kts 205°
2026-05-06 16:18 54.10650 11.02751 33891 ft 424 kts 205°
2026-05-06 16:18 54.07982 11.00656 33896 ft 422 kts 205°
2026-05-06 16:18 54.02663 10.96492 33901 ft 420 kts 205°
2026-05-06 16:19 53.97343 10.92332 33895 ft 421 kts 205°
2026-05-06 16:19 53.92036 10.88175 33894 ft 423 kts 205°
2026-05-06 16:20 53.87584 10.84699 33889 ft 423 kts 205°
2026-05-06 16:20 53.82234 10.80537 33896 ft 422 kts 205°
2026-05-06 16:21 53.76885 10.76401 33881 ft 422 kts 205°
2026-05-06 16:21 53.71538 10.72274 33873 ft 422 kts 205°
2026-05-06 16:22 53.66184 10.68153 33870 ft 423 kts 205°
2026-05-06 16:22 53.60823 10.64035 33877 ft 424 kts 205°
2026-05-06 16:23 53.55452 10.59922 33865 ft 423 kts 205°
2026-05-06 16:23 53.50119 10.55841 33878 ft 423 kts 205°
2026-05-06 16:24 53.44754 10.51743 33857 ft 423 kts 205°
2026-05-06 16:24 53.39385 10.47675 33860 ft 423 kts 205°
2026-05-06 16:25 53.34017 10.43617 33865 ft 424 kts 205°
2026-05-06 16:25 53.28662 10.39568 33849 ft 423 kts 205°
2026-05-06 16:26 53.23304 10.35537 33844 ft 421 kts 205°
2026-05-06 16:26 53.17945 10.31517 33853 ft 421 kts 205°
2026-05-06 16:27 53.12604 10.27518 33842 ft 420 kts 205°
2026-05-06 16:27 53.07289 10.23547 33839 ft 420 kts 205°
2026-05-06 16:28 53.01951 10.19557 33845 ft 420 kts 205°
2026-05-06 16:28 52.96601 10.15590 33833 ft 421 kts 205°
2026-05-06 16:29 52.91269 10.11644 33814 ft 422 kts 205°
2026-05-06 16:29 52.85881 10.07657 33817 ft 424 kts 205°
2026-05-06 16:30 52.81390 10.04350 33829 ft 424 kts 205°
2026-05-06 16:30 52.75116 9.99730 33837 ft 424 kts 205°
2026-05-06 16:31 52.69732 9.95784 33835 ft 424 kts 205°
2026-05-06 16:31 52.64330 9.91840 33842 ft 423 kts 205°
2026-05-06 16:32 52.58945 9.87914 33828 ft 423 kts 205°
2026-05-06 16:32 52.53559 9.84004 33836 ft 422 kts 205°
2026-05-06 16:33 52.48196 9.80110 33841 ft 421 kts 205°
2026-05-06 16:34 52.40158 9.74298 33838 ft 421 kts 205°
2026-05-06 16:34 52.34794 9.70439 33828 ft 420 kts 205°
2026-05-06 16:35 52.29469 9.66616 33835 ft 420 kts 205°
2026-05-06 16:35 52.24082 9.62751 33841 ft 420 kts 205°
2026-05-06 16:36 52.18752 9.58942 33838 ft 420 kts 205°
2026-05-06 16:36 52.13388 9.55121 33818 ft 419 kts 205°
2026-05-06 16:37 52.08062 9.51331 33827 ft 419 kts 205°
2026-05-06 16:37 52.02739 9.47560 33830 ft 418 kts 205°
2026-05-06 16:38 51.97399 9.43784 33829 ft 418 kts 205°
2026-05-06 16:38 51.92048 9.40018 33832 ft 418 kts 205°
2026-05-06 16:39 51.86710 9.36272 33823 ft 418 kts 205°
2026-05-06 16:39 51.81410 9.32546 33826 ft 418 kts 205°
2026-05-06 16:40 51.76067 9.28802 33826 ft 418 kts 205°
2026-05-06 16:40 51.70731 9.25070 33827 ft 418 kts 205°
2026-05-06 16:41 51.65415 9.21368 33815 ft 418 kts 205°
2026-05-06 16:41 51.60080 9.17661 33814 ft 417 kts 204°
2026-05-06 16:42 51.54742 9.13971 33816 ft 417 kts 204°
2026-05-06 16:42 51.49361 9.10678 33815 ft 418 kts 195°
2026-05-06 16:43 51.43654 9.08718 33799 ft 419 kts 194°
2026-05-06 16:43 51.37970 9.06796 33804 ft 419 kts 193°
2026-05-06 16:44 51.32248 9.04861 33804 ft 419 kts 194°
2026-05-06 16:44 51.26507 9.03326 33805 ft 420 kts 189°
2026-05-06 16:45 51.20672 9.02278 33800 ft 420 kts 188°
2026-05-06 16:45 51.14887 9.01282 33798 ft 420 kts 188°
2026-05-06 16:46 51.09082 9.00169 33801 ft 420 kts 189°
2026-05-06 16:46 51.03294 8.98995 33806 ft 420 kts 189°
2026-05-06 16:47 50.97508 8.97831 33575 ft 415 kts 191°
2026-05-06 16:47 50.94654 8.97272 33770 ft 409 kts 191°
2026-05-06 16:47 50.91821 8.96714 33808 ft 409 kts 191°
2026-05-06 16:48 50.86209 8.95609 33804 ft 408 kts 191°
2026-05-06 16:48 50.80577 8.94501 33805 ft 407 kts 191°
2026-05-06 16:49 50.74957 8.93400 33796 ft 406 kts 191°
2026-05-06 16:49 50.69335 8.92301 33801 ft 406 kts 191°
2026-05-06 16:50 50.63759 8.91217 33797 ft 405 kts 191°
2026-05-06 16:50 50.58145 8.90131 33797 ft 405 kts 191°
2026-05-06 16:51 50.52568 8.89044 33777 ft 405 kts 191°
2026-05-06 16:51 50.46959 8.87954 33788 ft 404 kts 191°
2026-05-06 16:52 50.41371 8.86877 33791 ft 404 kts 191°
2026-05-06 16:52 50.35811 8.85802 33797 ft 404 kts 191°
2026-05-06 16:53 50.30203 8.84723 33795 ft 404 kts 191°
2026-05-06 16:53 50.24658 8.83654 33811 ft 403 kts 190°
2026-05-06 16:54 50.19092 8.82584 33805 ft 402 kts 190°
2026-05-06 16:54 50.13524 8.81527 33813 ft 402 kts 190°
2026-05-06 16:55 50.07998 8.80473 33801 ft 401 kts 190°
2026-05-06 16:55 50.02457 8.79401 33818 ft 400 kts 191°
2026-05-06 16:56 49.96918 8.78250 33815 ft 399 kts 191°
2026-05-06 16:56 49.91420 8.77088 33822 ft 399 kts 191°
2026-05-06 16:57 49.85948 8.75935 33815 ft 398 kts 191°
2026-05-06 16:57 49.80449 8.74787 33827 ft 397 kts 191°
2026-05-06 16:58 49.74995 8.73662 33820 ft 396 kts 191°
2026-05-06 16:58 49.69550 8.72543 33815 ft 396 kts 190°
2026-05-06 16:59 49.64072 8.71441 33801 ft 395 kts 190°
2026-05-06 16:59 49.58656 8.70366 33796 ft 395 kts 190°
2026-05-06 17:00 49.53202 8.69268 33779 ft 394 kts 190°
2026-05-06 17:00 49.47762 8.68169 33780 ft 394 kts 190°
2026-05-06 17:01 49.42313 8.67070 33817 ft 394 kts 190°
2026-05-06 17:01 49.36893 8.65966 33822 ft 394 kts 189°
2026-05-06 17:02 49.31472 8.64861 33827 ft 394 kts 189°
2026-05-06 17:02 49.26915 8.63955 33824 ft 394 kts 189°
2026-05-06 17:03 49.20593 8.62688 33834 ft 394 kts 189°
2026-05-06 17:03 49.16077 8.61774 33834 ft 394 kts 189°
2026-05-06 17:04 49.10643 8.60684 33841 ft 393 kts 189°
2026-05-06 17:04 49.05208 8.59602 33835 ft 393 kts 189°
2026-05-06 17:05 48.99766 8.58522 33847 ft 393 kts 189°
2026-05-06 17:05 48.94387 8.57060 33851 ft 392 kts 193°
2026-05-06 17:06 48.89070 8.55216 33855 ft 392 kts 194°
2026-05-06 17:06 48.83754 8.53381 33855 ft 392 kts 193°
2026-05-06 17:07 48.78427 8.51647 33862 ft 392 kts 193°
2026-05-06 17:07 48.73130 8.49965 33858 ft 392 kts 192°
2026-05-06 17:08 48.67810 8.48269 33865 ft 391 kts 193°
2026-05-06 17:08 48.62489 8.46553 33859 ft 391 kts 193°
2026-05-06 17:09 48.57147 8.44840 33869 ft 391 kts 193°
2026-05-06 17:09 48.54484 8.43992 34043 ft 391 kts 193°
2026-05-06 17:09 48.51822 8.43143 34278 ft 390 kts 193°
2026-05-06 17:09 48.49168 8.42299 34518 ft 390 kts 193°
2026-05-06 17:10 48.46515 8.41457 34754 ft 389 kts 193°
2026-05-06 17:10 48.41169 8.39762 34864 ft 397 kts 192°
2026-05-06 17:11 48.35742 8.38047 34868 ft 399 kts 193°
2026-05-06 17:11 48.30303 8.36322 34866 ft 400 kts 192°
2026-05-06 17:12 48.24858 8.34606 34876 ft 400 kts 192°
2026-05-06 17:12 48.19403 8.32872 34870 ft 400 kts 195°
2026-05-06 17:13 48.14326 8.29546 34880 ft 401 kts 212°
2026-05-06 17:13 48.09641 8.25000 34872 ft 402 kts 211°
2026-05-06 17:14 48.04935 8.20470 34880 ft 403 kts 211°
2026-05-06 17:14 48.00215 8.15945 34883 ft 403 kts 211°
2026-05-06 17:15 47.95490 8.11417 34888 ft 403 kts 211°
2026-05-06 17:15 47.90767 8.06898 34888 ft 404 kts 211°
2026-05-06 17:16 47.86030 8.02368 34885 ft 405 kts 211°
2026-05-06 17:16 47.81286 7.97840 34892 ft 405 kts 211°
2026-05-06 17:17 47.76538 7.93317 34898 ft 406 kts 211°
2026-05-06 17:17 47.71810 7.88829 34894 ft 406 kts 211°
2026-05-06 17:18 47.67045 7.84288 34891 ft 407 kts 216°
2026-05-06 17:18 47.62691 7.78903 34891 ft 408 kts 218°
2026-05-06 17:19 47.58365 7.73450 34881 ft 408 kts 218°
2026-05-06 17:19 47.54016 7.67990 34888 ft 409 kts 218°
2026-05-06 17:20 47.49685 7.62577 34888 ft 409 kts 218°
2026-05-06 17:20 47.45333 7.57157 34892 ft 409 kts 218°
2026-05-06 17:21 47.40980 7.51749 34894 ft 409 kts 218°
2026-05-06 17:21 47.36618 7.46346 34923 ft 410 kts 218°
2026-05-06 17:22 47.32252 7.40928 34915 ft 411 kts 219°
2026-05-06 17:22 47.27863 7.35497 34914 ft 411 kts 218°
2026-05-06 17:23 47.23475 7.30089 34923 ft 412 kts 218°
2026-05-06 17:23 47.19083 7.24684 34919 ft 412 kts 218°
2026-05-06 17:24 47.14684 7.19288 34922 ft 412 kts 219°
2026-05-06 17:24 47.10284 7.13904 34903 ft 412 kts 219°
2026-05-06 17:25 47.05883 7.08524 34904 ft 412 kts 219°
2026-05-06 17:25 47.01485 7.03156 34901 ft 411 kts 219°
2026-05-06 17:26 46.97086 6.97796 34929 ft 411 kts 219°
2026-05-06 17:26 46.92675 6.92453 34936 ft 412 kts 219°
2026-05-06 17:27 46.88252 6.87121 34931 ft 412 kts 218°
2026-05-06 17:27 46.83805 6.81825 34922 ft 413 kts 218°
2026-05-06 17:28 46.79348 6.76545 34923 ft 413 kts 218°
2026-05-06 17:28 46.77121 6.73897 35078 ft 413 kts 219°
2026-05-06 17:28 46.74889 6.71247 34927 ft 413 kts 219°
2026-05-06 17:29 46.70459 6.65991 34904 ft 410 kts 219°
2026-05-06 17:29 46.66029 6.60738 34897 ft 411 kts 219°
2026-05-06 17:30 46.61588 6.55494 34899 ft 412 kts 219°
2026-05-06 17:30 46.57131 6.50260 34903 ft 412 kts 219°
2026-05-06 17:31 46.52675 6.45025 34924 ft 412 kts 219°
2026-05-06 17:31 46.48200 6.39779 34903 ft 415 kts 219°
2026-05-06 17:32 46.43698 6.34519 34892 ft 416 kts 219°
2026-05-06 17:32 46.39179 6.29246 34889 ft 418 kts 219°
2026-05-06 17:33 46.34651 6.23969 34892 ft 418 kts 219°
2026-05-06 17:33 46.30114 6.18703 34899 ft 418 kts 219°
2026-05-06 17:34 46.25284 6.14068 34902 ft 419 kts 205°
2026-05-06 17:34 46.19653 6.11935 34903 ft 421 kts 191°
2026-05-06 17:35 46.13850 6.10666 34904 ft 422 kts 191°
2026-05-06 17:35 46.08044 6.09372 34899 ft 422 kts 191°
2026-05-06 17:36 45.99332 6.07444 34895 ft 422 kts 191°
2026-05-06 17:36 45.93523 6.06154 34917 ft 422 kts 191°
2026-05-06 17:37 45.87729 6.04872 34921 ft 421 kts 191°
2026-05-06 17:37 45.81939 6.03597 34922 ft 421 kts 191°
2026-05-06 17:38 45.76158 6.02323 34916 ft 420 kts 191°
2026-05-06 17:38 45.70382 6.01044 34924 ft 420 kts 191°
2026-05-06 17:39 45.64633 5.99776 34922 ft 420 kts 191°
2026-05-06 17:39 45.58849 5.98510 34917 ft 420 kts 192°
2026-05-06 17:40 45.53079 5.97253 34917 ft 419 kts 192°
2026-05-06 17:40 45.47316 5.95985 34921 ft 418 kts 192°
2026-05-06 17:41 45.41587 5.94349 34910 ft 417 kts 196°
2026-05-06 17:41 45.35945 5.92462 34926 ft 416 kts 196°
2026-05-06 17:42 45.30303 5.90611 34932 ft 416 kts 196°
2026-05-06 17:42 45.24644 5.88848 34937 ft 416 kts 195°
2026-05-06 17:43 45.19025 5.87122 34931 ft 415 kts 195°
2026-05-06 17:43 45.13369 5.85377 34936 ft 415 kts 196°
2026-05-06 17:44 45.08645 5.83920 34936 ft 414 kts 196°
2026-05-06 17:44 45.03019 5.82184 34916 ft 414 kts 196°
2026-05-06 17:45 44.97447 5.80459 34934 ft 413 kts 196°
2026-05-06 17:45 44.91849 5.78733 34935 ft 411 kts 196°
2026-05-06 17:46 44.86266 5.77018 34935 ft 410 kts 196°
2026-05-06 17:46 44.80690 5.75311 34928 ft 409 kts 196°
2026-05-06 17:47 44.75132 5.73615 34937 ft 408 kts 196°
2026-05-06 17:47 44.69590 5.71925 34933 ft 407 kts 196°
2026-05-06 17:48 44.64054 5.70242 34930 ft 407 kts 196°
2026-05-06 17:48 44.58500 5.68557 34911 ft 409 kts 196°
2026-05-06 17:49 44.52936 5.66864 34906 ft 410 kts 196°
2026-05-06 17:49 44.47363 5.65179 34890 ft 410 kts 196°
2026-05-06 17:50 44.41783 5.63499 34904 ft 410 kts 196°
2026-05-06 17:50 44.36307 5.61435 34911 ft 405 kts 205°
2026-05-06 17:51 44.31067 5.58541 34907 ft 405 kts 205°
2026-05-06 17:51 44.25816 5.55668 34899 ft 405 kts 205°
2026-05-06 17:52 44.20578 5.52804 34914 ft 404 kts 205°
2026-05-06 17:52 44.15345 5.49952 34913 ft 403 kts 205°
2026-05-06 17:53 44.10120 5.47109 34917 ft 403 kts 205°
2026-05-06 17:53 44.04902 5.44271 34907 ft 402 kts 205°
2026-05-06 17:54 43.99696 5.41457 34909 ft 402 kts 205°
2026-05-06 17:54 43.94519 5.38659 34912 ft 401 kts 205°
2026-05-06 17:55 43.89314 5.35837 34889 ft 401 kts 205°
2026-05-06 17:55 43.84102 5.33019 34931 ft 400 kts 205°
2026-05-06 17:56 43.78929 5.30236 34916 ft 401 kts 205°
2026-05-06 17:56 43.73929 5.26872 34913 ft 399 kts 211°
2026-05-06 17:57 43.69019 5.23279 34894 ft 399 kts 212°
2026-05-06 17:57 43.64141 5.19690 34909 ft 399 kts 212°
2026-05-06 17:58 43.59234 5.16111 34921 ft 399 kts 211°
2026-05-06 17:58 43.54325 5.12563 34926 ft 398 kts 211°
2026-05-06 17:59 43.49414 5.09024 34906 ft 398 kts 211°
2026-05-06 17:59 43.44508 5.05497 34920 ft 398 kts 211°
2026-05-06 18:00 43.39603 5.01977 34917 ft 398 kts 211°
2026-05-06 18:00 43.34698 4.98453 34923 ft 398 kts 211°
2026-05-06 18:01 43.29797 4.94935 34925 ft 398 kts 212°
2026-05-06 18:01 43.24891 4.91423 34928 ft 398 kts 212°
2026-05-06 18:02 43.19979 4.87911 34933 ft 398 kts 211°
2026-05-06 18:02 43.15067 4.84414 34941 ft 398 kts 211°
2026-05-06 18:03 43.10140 4.80916 34924 ft 398 kts 212°
2026-05-06 18:03 43.05234 4.77426 34935 ft 398 kts 211°
2026-05-06 18:04 43.00117 4.74379 34947 ft 400 kts 207°
2026-05-06 18:04 42.94965 4.71586 34949 ft 400 kts 206°
2026-05-06 18:05 42.89755 4.68777 34939 ft 400 kts 207°
2026-05-06 18:05 42.84601 4.65954 34943 ft 399 kts 207°
2026-05-06 18:06 42.79454 4.63115 34947 ft 399 kts 207°
2026-05-06 18:06 42.74310 4.60286 34948 ft 399 kts 207°
2026-05-06 18:07 42.69199 4.57487 34945 ft 399 kts 207°
2026-05-06 18:07 42.64048 4.54669 34961 ft 399 kts 207°
2026-05-06 18:08 42.58896 4.51858 34954 ft 399 kts 207°
2026-05-06 18:08 42.53743 4.49050 34949 ft 399 kts 207°
2026-05-06 18:09 42.48588 4.46241 34937 ft 399 kts 207°
2026-05-06 18:09 42.43430 4.43451 34943 ft 399 kts 207°
2026-05-06 18:10 42.38277 4.40665 34950 ft 399 kts 207°
2026-05-06 18:10 42.33127 4.37876 34957 ft 398 kts 207°
2026-05-06 18:11 42.27945 4.35080 34938 ft 398 kts 207°
2026-05-06 18:11 42.22809 4.32316 34946 ft 397 kts 207°
2026-05-06 18:12 42.17679 4.29552 34959 ft 397 kts 207°
2026-05-06 18:12 42.12544 4.26794 34966 ft 397 kts 207°
2026-05-06 18:13 42.07443 4.24049 34946 ft 397 kts 207°
2026-05-06 18:13 42.02314 4.21298 34957 ft 397 kts 207°
2026-05-06 18:14 41.97151 4.18541 34978 ft 397 kts 207°
2026-05-06 18:14 41.92019 4.15799 34971 ft 397 kts 207°
2026-05-06 18:15 41.86884 4.13052 34936 ft 397 kts 207°
2026-05-06 18:15 41.81747 4.10304 34949 ft 398 kts 207°
2026-05-06 18:16 41.76642 4.07579 34953 ft 398 kts 207°
2026-05-06 18:16 41.71469 4.04828 34956 ft 398 kts 207°
2026-05-06 18:17 41.66358 4.02124 34951 ft 398 kts 207°
2026-05-06 18:17 41.61214 3.99411 34960 ft 397 kts 207°
2026-05-06 18:18 41.56072 3.96696 34964 ft 397 kts 207°
2026-05-06 18:18 41.50923 3.94012 34966 ft 398 kts 207°
2026-05-06 18:19 41.45761 3.91344 34947 ft 397 kts 207°
2026-05-06 18:19 41.40608 3.88695 34960 ft 397 kts 207°
2026-05-06 18:20 41.35464 3.86052 34964 ft 396 kts 207°
2026-05-06 18:20 41.30319 3.83407 34967 ft 396 kts 207°
2026-05-06 18:21 41.25184 3.80767 34959 ft 396 kts 207°
2026-05-06 18:21 41.20058 3.78132 34967 ft 396 kts 207°
2026-05-06 18:22 41.14914 3.75498 34959 ft 396 kts 207°
2026-05-06 18:22 41.09779 3.72859 34957 ft 396 kts 207°
2026-05-06 18:23 41.04647 3.70202 34927 ft 396 kts 207°
2026-05-06 18:23 40.99521 3.67555 34944 ft 395 kts 207°
2026-05-06 18:24 40.94395 3.64925 34954 ft 395 kts 207°
2026-05-06 18:24 40.89256 3.62297 34965 ft 395 kts 207°
2026-05-06 18:25 40.84133 3.59668 34942 ft 395 kts 207°
2026-05-06 18:25 40.79017 3.57047 34953 ft 394 kts 207°
2026-05-06 18:26 40.74771 3.54877 34953 ft 393 kts 207°
2026-05-06 18:26 40.69667 3.52274 34956 ft 393 kts 207°
2026-05-06 18:27 40.64563 3.49681 34960 ft 393 kts 207°
2026-05-06 18:27 40.59457 3.47086 34268 ft 396 kts 208°
2026-05-06 18:28 40.56874 3.45769 33449 ft 399 kts 208°
2026-05-06 18:28 40.54298 3.44459 32938 ft 395 kts 207°
2026-05-06 18:28 40.51727 3.43162 32454 ft 390 kts 207°
2026-05-06 18:28 40.49239 3.41912 31987 ft 386 kts 207°
2026-05-06 18:29 40.46708 3.40642 31507 ft 382 kts 206°
2026-05-06 18:29 40.44171 3.39708 30989 ft 387 kts 197°
2026-05-06 18:29 40.41432 3.39392 30418 ft 395 kts 186°
2026-05-06 18:29 40.38718 3.39552 29902 ft 395 kts 185°
2026-05-06 18:30 40.35950 3.39724 29326 ft 392 kts 185°
2026-05-06 18:30 40.33245 3.39882 28803 ft 388 kts 185°
2026-05-06 18:30 40.30554 3.40031 28273 ft 385 kts 186°
2026-05-06 18:30 40.27895 3.39775 27236 ft 383 kts 197°
2026-05-06 18:31 40.25246 3.39129 26195 ft 393 kts 196°
2026-05-06 18:31 40.22550 3.38462 25242 ft 389 kts 196°
2026-05-06 18:31 40.19913 3.37819 24246 ft 380 kts 195°
2026-05-06 18:31 40.17352 3.37204 23939 ft 369 kts 195°
2026-05-06 18:32 40.14883 3.36613 23556 ft 364 kts 195°
2026-05-06 18:32 40.12410 3.36015 23092 ft 359 kts 195°
2026-05-06 18:32 40.09974 3.35424 22674 ft 354 kts 195°
2026-05-06 18:32 40.07566 3.34841 22268 ft 348 kts 195°
2026-05-06 18:33 40.05202 3.34268 21858 ft 344 kts 195°
2026-05-06 18:33 40.02864 3.33702 21455 ft 340 kts 195°
2026-05-06 18:33 40.00553 3.33131 21016 ft 336 kts 197°
2026-05-06 18:33 39.98374 3.32056 20123 ft 335 kts 216°
2026-05-06 18:34 39.96511 3.30257 19253 ft 334 kts 221°
2026-05-06 18:34 39.94697 3.28382 18403 ft 330 kts 221°
2026-05-06 18:34 39.92916 3.26530 17495 ft 325 kts 221°
2026-05-06 18:34 39.91162 3.24706 16867 ft 322 kts 221°
2026-05-06 18:35 39.89420 3.22895 16464 ft 318 kts 221°
2026-05-06 18:35 39.87697 3.21107 16087 ft 315 kts 221°
2026-05-06 18:35 39.85990 3.19338 15712 ft 312 kts 220°
2026-05-06 18:35 39.84308 3.17599 15354 ft 308 kts 220°
2026-05-06 18:36 39.82635 3.15871 15014 ft 306 kts 220°
2026-05-06 18:36 39.80945 3.14125 14949 ft 313 kts 220°
2026-05-06 18:36 39.79229 3.12354 14958 ft 316 kts 220°
2026-05-06 18:36 39.77507 3.10581 14743 ft 315 kts 220°
2026-05-06 18:37 39.75788 3.08814 14320 ft 313 kts 220°
2026-05-06 18:37 39.74077 3.07058 13893 ft 312 kts 220°
2026-05-06 18:37 39.72375 3.05313 13459 ft 311 kts 220°
2026-05-06 18:37 39.70676 3.03569 13010 ft 311 kts 220°
2026-05-06 18:38 39.68983 3.01832 12561 ft 310 kts 220°
2026-05-06 18:38 39.67299 3.00106 12125 ft 309 kts 220°
2026-05-06 18:38 39.65613 2.98380 11690 ft 308 kts 220°
2026-05-06 18:38 39.63935 2.96660 11262 ft 307 kts 220°
2026-05-06 18:39 39.62261 2.94945 10842 ft 306 kts 220°
2026-05-06 18:39 39.60607 2.93249 10610 ft 299 kts 219°
2026-05-06 18:39 39.59005 2.91611 10487 ft 288 kts 219°
2026-05-06 18:40 39.55912 2.88408 9828 ft 282 kts 226°
2026-05-06 18:40 39.54613 2.86521 9413 ft 280 kts 231°
2026-05-06 18:40 39.53388 2.84560 9004 ft 280 kts 232°
2026-05-06 18:40 39.52175 2.82591 8575 ft 279 kts 232°
2026-05-06 18:41 39.50975 2.80631 8191 ft 278 kts 232°
2026-05-06 18:41 39.49773 2.78663 7819 ft 276 kts 232°
2026-05-06 18:41 39.48591 2.76716 7440 ft 275 kts 234°
2026-05-06 18:41 39.47591 2.74605 7046 ft 274 kts 241°
2026-05-06 18:42 39.46691 2.72433 6650 ft 274 kts 242°
2026-05-06 18:42 39.45804 2.70250 6269 ft 273 kts 242°
2026-05-06 18:42 39.44932 2.68082 6019 ft 266 kts 242°
2026-05-06 18:42 39.44110 2.66017 5904 ft 255 kts 242°
2026-05-06 18:43 39.43309 2.63991 5527 ft 255 kts 242°
2026-05-06 18:43 39.42503 2.61936 5083 ft 257 kts 242°
2026-05-06 18:43 39.41713 2.59909 4944 ft 247 kts 242°
2026-05-06 18:43 39.40960 2.57956 4818 ft 238 kts 243°
2026-05-06 18:44 39.40591 2.55932 4667 ft 229 kts 273°
2026-05-06 18:44 39.41089 2.54023 4346 ft 227 kts 306°
2026-05-06 18:44 39.42303 2.52822 4123 ft 218 kts 342°
2026-05-06 18:44 39.43795 2.52610 3728 ft 218 kts
2026-05-06 18:45 39.45276 2.53103 3283 ft 220 kts 27°
2026-05-06 18:45 39.46516 2.54189 3024 ft 210 kts 46°
2026-05-06 18:45 39.47381 2.55626 2753 ft 199 kts 60°
2026-05-06 18:45 39.48089 2.57116 2491 ft 190 kts 60°
2026-05-06 18:46 39.48765 2.58536 2243 ft 181 kts 60°
2026-05-06 18:46 39.49404 2.59879 2014 ft 170 kts 60°
2026-05-06 18:46 39.50010 2.61154 1789 ft 163 kts 61°
2026-05-06 18:46 39.50598 2.62393 1573 ft 161 kts 60°
2026-05-06 18:47 39.51183 2.63623 1359 ft 160 kts 60°
2026-05-06 18:47 39.51744 2.64804 1149 ft 149 kts 60°
2026-05-06 18:47 39.52277 2.65928 953 ft 145 kts 59°
2026-05-06 18:47 39.52802 2.67036 764 ft 144 kts 58°
2026-05-06 18:48 39.53325 2.68141 578 ft 144 kts 57°
2026-05-06 18:48 39.53849 2.69241 391 ft 143 kts 57°
2026-05-06 18:48 39.54370 2.70341 201 ft 143 kts 57°
2026-05-06 18:48 39.54886 2.71435 43 ft 138 kts 57°
2026-05-06 18:49 39.55323 2.72353 37 ft 97 kts 58°
2026-05-06 18:49 39.55486 2.72746 36 ft 26 kts 79°
2026-05-06 18:49 39.55498 2.72976 38 ft 25 kts 89°
2026-05-06 18:49 39.55510 2.73175 38 ft 20 kts 75°
2026-05-06 18:50 39.55573 2.73329 38 ft 19 kts 57°
2026-05-06 18:50 39.55627 2.73462 38 ft 14 kts 85°
2026-05-06 18:50 39.55568 2.73542 38 ft 13 kts 149°
2026-05-06 18:50 39.55488 2.73605 38 ft 16 kts 148°
2026-05-06 18:51 39.55365 2.73703 38 ft 22 kts 149°
2026-05-06 18:51 39.55248 2.73795 38 ft 16 kts 148°
2026-05-06 18:51 39.55182 2.73809 38 ft 8 kts 211°
2026-05-06 18:51 39.55172 2.73751 38 ft 6 kts 284°
2026-05-06 18:52 39.55176 2.73697 38 ft 7 kts 259°
2026-05-06 18:52 39.55134 2.73600 38 ft 17 kts 238°
2026-05-06 18:52 39.55072 2.73466 38 ft 16 kts 239°
2026-05-06 18:52 39.55031 2.73432 38 ft 6 kts 174°
2026-05-06 18:53 39.55007 2.73438 38 ft 1 kts 166°
2026-05-06 18:53 39.55005 2.73439 38 ft 0 kts 166°
2026-05-06 18:53 39.55002 2.73440 38 ft 0 kts 166°